Location: Newark
(43.0000°N, 1.6781°W)
Time: 08:33:59
(UTC+00:00)

AO-7 - Pass Details

Date: 09 December 2022
Orbit: 1440 x 1459 km, 101.9° (Epoch: 28 January)

Event Time Altitude Azimuth Distance (km) Brightness Sun altitude
Rises 17:31:28 0° 211° (SSW) 4,526 ? -10.6°
Reaches altitude 10° 17:35:25 10° 229° (SW) 3,550 ? -11.3°
Maximum altitude 17:40:43 18° 270° (W) 2,954 ? -12.2°
Drops below altitude 10° 17:46:03 10° 310° (NW) 3,559 ? -13.1°
Sets 17:50:05 0° 329° (NNW) 4,542 ? -13.8°
